• In Hungary
  • List of Countries
  • For 7 days
  • Water Temperature
  • Satellite Maps
  • Weather Map
  • News
  • Weather Widgets
  • user-avatar
    Login

    Hourly Weather Shardzha

    Today, 23 September, Sunday

    Time Temperature Precipitation Wind Pressure Humidity
    00:00 +36°C° 0 mm 2 mps 754 mmHg 43%
    01:00 +35°C° 0 mm 2 mps 754 mmHg 42%
    02:00 +35°C° 0 mm 2 mps 754 mmHg 42%
    03:00 +35°C° 0 mm 2 mps 754 mmHg 41%
    04:00 +34°C° 0 mm 2 mps 754 mmHg 43%
    05:00 +34°C° 0 mm 2 mps 755 mmHg 40%
    06:00 +35°C° 0 mm 2 mps 755 mmHg 38%
    07:00 +35°C° 0 mm 2 mps 755 mmHg 36%
    08:00 +37°C° 0 mm 2 mps 756 mmHg 32%
    09:00 +39°C° 0 mm 2 mps 756 mmHg 29%
    10:00 +41°C° 0 mm 2 mps 756 mmHg 25%
    11:00 +42°C° 0 mm 2 mps 756 mmHg 24%
    12:00 +43°C° 0 mm 2 mps 755 mmHg 22%
    13:00 +45°C° 0 mm 2 mps 755 mmHg 21%
    14:00 +45°C° 0 mm 3 mps 755 mmHg 23%
    15:00 +44°C° 0 mm 4 mps 754 mmHg 25%
    16:00 +45°C° 0 mm 5 mps 754 mmHg 27%
    17:00 +42°C° 0 mm 4 mps 754 mmHg 30%
    18:00 +41°C° 0 mm 4 mps 754 mmHg 34%
    19:00 +38°C° 0 mm 3 mps 754 mmHg 37%
    20:00 +37°C° 0 mm 3 mps 754 mmHg 38%
    21:00 +37°C° 0 mm 3 mps 755 mmHg 38%
    22:00 +36°C° 0 mm 2 mps 755 mmHg 38%
    23:00 +36°C° 0 mm 2 mps 755 mmHg 37%

    Tomorrow, 24 September, Monday

    Time Temperature Precipitation Wind Pressure Humidity
    00:00 +36°C° 0 mm 2 mps 754 mmHg 36%
    01:00 +35°C° 0 mm 2 mps 754 mmHg 36%
    02:00 +35°C° 0 mm 2 mps 754 mmHg 35%
    03:00 +35°C° 0 mm 2 mps 754 mmHg 34%
    04:00 +35°C° 0 mm 2 mps 754 mmHg 33%
    05:00 +35°C° 0 mm 3 mps 754 mmHg 32%
    06:00 +35°C° 0 mm 4 mps 755 mmHg 30%
    07:00 +35°C° 0 mm 6 mps 755 mmHg 29%
    08:00 +38°C° 0 mm 6 mps 755 mmHg 27%
    09:00 +40°C° 0 mm 7 mps 755 mmHg 25%
    10:00 +43°C° 0 mm 7 mps 756 mmHg 24%
    11:00 +44°C° 0 mm 7 mps 755 mmHg 23%
    12:00 +44°C° 0 mm 6 mps 755 mmHg 23%
    13:00 +45°C° 0 mm 6 mps 755 mmHg 22%
    14:00 +45°C° 0 mm 6 mps 754 mmHg 23%
    15:00 +45°C° 0 mm 6 mps 754 mmHg 24%
    16:00 +43°C° 0 mm 5 mps 753 mmHg 25%
    17:00 +41°C° 0 mm 5 mps 753 mmHg 31%
    18:00 +38°C° 0 mm 4 mps 753 mmHg 37%
    19:00 +36°C° 0 mm 3 mps 753 mmHg 44%
    20:00 +35°C° 0 mm 2 mps 753 mmHg 46%
    21:00 +34°C° 0 mm 1 mps 754 mmHg 47%
    22:00 +33°C° 0 mm 1 mps 754 mmHg 49%
    23:00 +33°C° 0 mm 1 mps 754 mmHg 47%

    Day after tomorrow, 25 September, Tuesday

    Time Temperature Precipitation Wind Pressure Humidity
    00:00 +33°C° 0 mm 1 mps 753 mmHg 44%
    01:00 +34°C° 0 mm 2 mps 753 mmHg 42%
    02:00 +34°C° 0 mm 2 mps 753 mmHg 42%
    03:00 +34°C° 0 mm 2 mps 753 mmHg 42%
    04:00 +33°C° 0 mm 3 mps 753 mmHg 43%
    05:00 +33°C° 0 mm 3 mps 753 mmHg 41%
    06:00 +34°C° 0 mm 4 mps 753 mmHg 39%
    07:00 +34°C° 0 mm 4 mps 754 mmHg 38%
    08:00 +35°C° 0 mm 5 mps 754 mmHg 37%
    09:00 +38°C° 0 mm 6 mps 755 mmHg 35%
    10:00 +40°C° 0 mm 6 mps 755 mmHg 34%
    11:00 +41°C° 0 mm 7 mps 755 mmHg 33%
    12:00 +43°C° 0 mm 7 mps 754 mmHg 31%
    13:00 +44°C° 0 mm 8 mps 754 mmHg 30%
    14:00 +43°C° 0 mm 8 mps 753 mmHg 33%
    15:00 +43°C° 0 mm 8 mps 753 mmHg 36%
    16:00 +41°C° 0 mm 8 mps 752 mmHg 40%
    17:00 +39°C° 0 mm 6 mps 752 mmHg 49%
    18:00 +36°C° 0 mm 5 mps 753 mmHg 57%
    19:00 +35°C° 0 mm 4 mps 753 mmHg 66%
    20:00 +34°C° 0 mm 3 mps 753 mmHg 70%
    21:00 +33°C° 0 mm 3 mps 753 mmHg 74%
    22:00 +32°C° 0 mm 2 mps 754 mmHg 78%
    23:00 +31°C° 0 mm 2 mps 753 mmHg 76%

    26 September, Wednesday

    Time Temperature Precipitation Wind Pressure Humidity
    00:00 +31°C° 0 mm 2 mps 753 mmHg 75%
    01:00 +31°C° 0 mm 2 mps 753 mmHg 73%
    02:00 +31°C° 0 mm 2 mps 753 mmHg 70%
    03:00 +30°C° 0 mm 2 mps 752 mmHg 67%
    04:00 +30°C° 0 mm 2 mps 752 mmHg 64%
    05:00 +30°C° 0 mm 3 mps 753 mmHg 59%
    06:00 +31°C° 0 mm 3 mps 753 mmHg 54%
    07:00 +31°C° 0 mm 3 mps 754 mmHg 49%
    08:00 +34°C° 0 mm 4 mps 754 mmHg 43%
    09:00 +36°C° 0 mm 4 mps 755 mmHg 37%
    10:00 +40°C° 0 mm 5 mps 755 mmHg 31%
    11:00 +41°C° 0 mm 5 mps 755 mmHg 29%
    12:00 +42°C° 0 mm 5 mps 754 mmHg 27%
    13:00 +42°C° 0 mm 5 mps 754 mmHg 25%
    14:00 +42°C° 0 mm 5 mps 753 mmHg 26%
    15:00 +41°C° 0 mm 5 mps 753 mmHg 28%
    16:00 +41°C° 0 mm 5 mps 752 mmHg 30%
    17:00 +38°C° 0 mm 4 mps 753 mmHg 39%
    18:00 +36°C° 0 mm 3 mps 753 mmHg 47%
    19:00 +34°C° 0 mm 2 mps 753 mmHg 56%
    20:00 +32°C° 0 mm 2 mps 753 mmHg 55%
    21:00 +32°C° 0 mm 2 mps 754 mmHg 54%
    22:00 +31°C° 0 mm 3 mps 754 mmHg 53%
    23:00 +31°C° 0 mm 3 mps 754 mmHg 48%

    27 September, Thursday

    Time Temperature Precipitation Wind Pressure Humidity
    00:00 +31°C° 0 mm 3 mps 753 mmHg 44%
    01:00 +31°C° 0 mm 3 mps 753 mmHg 40%
    02:00 +31°C° 0 mm 3 mps 753 mmHg 41%
    03:00 +30°C° 0 mm 2 mps 753 mmHg 42%
    04:00 +30°C° 0 mm 2 mps 753 mmHg 43%
    05:00 +30°C° 0 mm 2 mps 753 mmHg 44%
    06:00 +30°C° 0 mm 2 mps 754 mmHg 44%
    07:00 +31°C° 0 mm 3 mps 754 mmHg 44%
    08:00 +34°C° 0 mm 2 mps 755 mmHg 39%
    09:00 +37°C° 0 mm 2 mps 755 mmHg 33%
    10:00 +39°C° 0 mm 2 mps 755 mmHg 27%
    11:00 +40°C° 0 mm 2 mps 755 mmHg 25%
    12:00 +41°C° 0 mm 2 mps 754 mmHg 22%
    13:00 +42°C° 0 mm 2 mps 754 mmHg 19%
    14:00 +43°C° 0 mm 3 mps 754 mmHg 21%
    15:00 +43°C° 0 mm 5 mps 753 mmHg 23%
    16:00 +44°C° 0 mm 6 mps 753 mmHg 25%
    17:00 +41°C° 0 mm 5 mps 753 mmHg 30%
    18:00 +39°C° 0 mm 5 mps 753 mmHg 35%
    19:00 +36°C° 0 mm 4 mps 754 mmHg 40%
    20:00 +36°C° 0 mm 3 mps 754 mmHg 39%
    21:00 +35°C° 0 mm 3 mps 754 mmHg 39%
    22:00 +35°C° 0 mm 2 mps 755 mmHg 39%
    23:00 +34°C° 0 mm 2 mps 754 mmHg 37%

    28 September, Friday

    Time Temperature Precipitation Wind Pressure Humidity
    00:00 +34°C° 0 mm 2 mps 754 mmHg 36%
    01:00 +34°C° 0 mm 2 mps 754 mmHg 34%
    02:00 +34°C° 0 mm 3 mps 754 mmHg 33%
    03:00 +34°C° 0 mm 3 mps 754 mmHg 31%
    04:00 +34°C° 0 mm 3 mps 754 mmHg 29%
    05:00 +34°C° 0 mm 3 mps 754 mmHg 28%
    06:00 +35°C° 0 mm 3 mps 755 mmHg 26%
    07:00 +35°C° 0 mm 3 mps 755 mmHg 24%
    08:00 +38°C° 0 mm 4 mps 756 mmHg 21%
    09:00 +41°C° 0 mm 4 mps 756 mmHg 18%
    10:00 +45°C° 0 mm 5 mps 756 mmHg 15%
    11:00 +45°C° 0 mm 5 mps 756 mmHg 15%
    12:00 +46°C° 0 mm 5 mps 755 mmHg 15%
    13:00 +46°C° 0 mm 5 mps 755 mmHg 14%
    14:00 +46°C° 0 mm 6 mps 755 mmHg 14%
    15:00 +45°C° 0 mm 6 mps 754 mmHg 15%
    16:00 +45°C° 0 mm 6 mps 754 mmHg 15%
    17:00 +42°C° 0 mm 5 mps 754 mmHg 16%
    18:00 +41°C° 0 mm 4 mps 755 mmHg 16%
    19:00 +38°C° 0 mm 4 mps 755 mmHg 17%
    20:00 +37°C° 0 mm 4 mps 755 mmHg 17%
    21:00 +37°C° 0 mm 3 mps 755 mmHg 17%
    22:00 +36°C° 0 mm 3 mps 755 mmHg 17%
    23:00 +36°C° 0 mm 3 mps 755 mmHg 19%
    Show more